Location: La Brionne
(46.1728°N, 1.7849°E)
Time: 12:42:53
(UTC+00:00)

Cosmos 2219 Rocket - Pass Details

Date: 27 October 2021
Orbit: 826 x 848 km, 71.0° (Epoch: 01 December)

Event Time Altitude Azimuth Distance (km) Brightness Sun altitude
Rises 20:49:28 0° 255° (WSW) 3,366 5.8 -41.8°
Reaches altitude 10° 20:52:41 10° 274° (W) 2,439 5.1 -42.2°
Enters shadow 20:55:28 18° 304° (WNW) 1,963 4.6 -42.7°
